Regional Weather Roundup
Issued by NWS Grand Forks, ND

Home | Current Version | Previous Version | Text Only | Print | Product List | Glossary Off
Versions: 1 2 3 4 5 6 7 8 9 10 11 12 13 14 15 16 17 18 19 20 21 22 23 24 25 26 27 28 29 30 31 32 33 34 35 36 37 38 39 40 41 42 43 44 45 46 47 48 49 50

000
ASUS43 KFGF 020710
RWRFGF
PRAIRIE TO PINES  WEATHER ROUNDUP
NATIONAL WEATHER SERVICE EASTERN NORTH DAKOTA/GRAND FORKS ND
200 AM CDT SUN AUG 02 2015

 **SATELLITE DATA USED TO AUGMENT SKY COVER AT AUTOMATED STATIONS**
 *****  WEATHER ACROSS EASTERN NORTH DAKOTA  *****

CITY           SKY/WX    TMP DP  RH WIND       PRES   REMARKS
GRAND FORKS    PTCLDY    68  62  81 N13       29.69R
GRAND FRKS AFB FAIR      68  61  79 N9        29.70S
DEVILS LAKE    PTCLDY    66  55  68 NE14      29.71S
FARGO          PTCLDY    69  65  86 S3        29.65S
WAHPETON ARPT  SUNNY     68  63  83 CALM      29.65R
$$

 ***** WEATHER ACROSS CENTRAL AND WESTERN NORTH DAKOTA  *****

CITY           SKY/WX    TMP DP  RH WIND       PRES   REMARKS
BISMARCK       CLEAR     69  53  56 W13       29.75R
MINOT          CLEAR     63  58  83 NW10      29.80R
JAMESTOWN      CLEAR     68  65  90 S9        29.65F
MINOT AFB      CLEAR     64  62  91 NW10      29.79R
GARRISON         N/A     66  54  65 N8        29.79R
WILLISTON      CLEAR     64  54  69 N6        29.88R
DICKINSON      CLEAR     64  53  67 N7        29.87R
HETTINGER      CLEAR     56  44  64 CALM      29.87S
$$

 *****  OTHER AIRPORT OBSERVATIONS IN OUR AREA  *****

CITY           SKY/WX    TMP DP  RH WIND       PRES   REMARKS
WALHALLA       FAIR      63  63 100 MISG      29.70F
GRAFTON AIRPOR FAIR      66  59  77 N8G15     29.70F
VALLEY CITY AR FAIR      66  66 100 SW9       29.67F
CANDO          NOT AVBL
CAVALIER APRT  FAIR      64  61  88 W5        29.69F
GWINNER          N/A     70  70 100 SW7       29.67F
ROLLA          PTSUNNY   61  59  94 N8        29.77R
 ***** THE ABOVE OBSERVATIONS ARE NON NWS ARE NOT QUALITY
       CONTROLLED AND MAY MIS-REPORT RAIN FOR SNOW...
$$

  *****  WEATHER ACROSS NORTHERN MINNESOTA  *****

CITY           SKY/WX    TMP DP  RH WIND       PRES   REMARKS
FLAG ISLAND    MOCLDY    70  59  68 N7        29.66S
WARROAD        CLOUDY    63  57  82 W6        29.67F
ROSEAU         CLOUDY    63  57  82 SW6       29.69R
HALLOCK        LGT RAIN  64  61  88 NW9       29.69S
THF RVR FALLS  MOCLDY    70  61  73 N6        29.70R
BAUDETTE       CLOUDY    61  58  90 SW5       29.66F
WASKISH        LGT RAIN  63  57  82 N5        29.71R
CROOKSTON      PTCLDY    66  63  88 N3G9      29.69R
STEPHEN NDAWN    N/A     68  59  73 N12         N/A
GREENBUSH NDAW   N/A     64  61  88 NW8         N/A
$$
  *****  WEATHER ACROSS CENTRAL AND WEST MINNESOTA  *****

CITY           SKY/WX    TMP DP  RH WIND       PRES   REMARKS
FOSSTON        MOCLDY    61  59  94 CALM      29.68F
BEMIDJI        MOCLDY    64  59  86 CALM      29.69S
PARK RAPIDS    CLEAR     63  60  90 NW5       29.67F
ELBOW LAKE     FAIR      67  65  91 S10       29.63F
WADENA         CLEAR     66  64  94 S5        29.65F
DETROIT LAKES  CLEAR     70  64  83 CALM      29.69S
MOORHEAD       PTCLDY    64  63  94 CALM      29.66F
FERGUS FALLS   CLEAR     68  66  94 W3        29.66R
MORRIS MN      CLEAR     66  64  94 S9        29.66F
STAPLES        CLEAR     66  64  94 S3        29.66F
$$
  *****  WEATHER ELSEWHERE ACROSS MINNESOTA  *****

CITY           SKY/WX    TMP DP  RH WIND       PRES   REMARKS
DULUTH         PTCLDY    68  59  73 W12       29.68F
INTRNTL FALLS  TSTM      63  60  90 W9        29.69S
ELY            MOCLDY    61  54  77 SW3       29.66F
CLOQUET        PTCLDY    66  59  77 SW7       29.68F
WHEATON        CLEAR     66  63  88 S7        29.66F
BRAINERD       CLEAR     66  63  90 CALM      29.67F
HIBBING        MOCLDY    58  55  90 CALM      29.68S
ALEXANDRIA     CLEAR     71  64  78 S12       29.69F
SAINT CLOUD    CLEAR     70  65  84 SW7       29.70F
MINNEAPOLIS    PTCLDY    75  65  70 SW13      29.73F
$$

  *****  WEATHER ACROSS SOUTH DAKOTA  *****

CITY           SKY/WX    TMP DP  RH WIND       PRES   REMARKS
SIOUX FALLS    CLEAR     73  61  65 SW9       29.81F
BROOKINGS      CLEAR     66  61  82 S9        29.80F
WATERTOWN      CLEAR     68  63  84 S7        29.72F
HURON          CLEAR     71  61  70 W12       29.75S
SISSETON         N/A     67  65  93 SW7       29.65F
ABERDEEN       PTCLDY    64  60  87 SW9       29.72R
MITCHELL       CLEAR     71  62  73 SW8       29.78F
PIERRE         CLEAR     72  60  66 W10       29.78S
MOBRIDGE       CLEAR     70  53  54 W6        29.76S
RAPID CITY     CLEAR     69  60  73 S6        29.91F
$$

  *****  SOME WEATHER IN NEARBY STATES *****

CITY           SKY/WX    TMP DP  RH WIND       PRES   REMARKS
GLASGOW MT     CLEAR     63  51  65 NE8       29.92R
GREAT FALLS MT CLEAR     61  37  41 SW10      29.93S
CHEYENNE WY    PTCLDY    63  53  70 S3        30.17S
SCOTTSBLUFF NE PTCLDY    71  55  56 SE9       30.02F
OMAHA NE       PTCLDY    75  71  87 S13       29.89F
DES MOINES IA  PTCLDY    74  65  73 SW9       29.89F
DAVENPORT IA   CLEAR     73  70  90 SW8       29.90F
CHICAGO IL     PTCLDY    73  65  75 W9        29.88F
EAU CLAIRE WI  MOCLDY    70  66  87 SW6       29.75F
LA CROSSE WI   PTCLDY    75  68  78 E3        29.79S
$$

  *****  SOME NATIONAL WEATHER *****

CITY           SKY/WX    TMP DP  RH WIND       PRES   REMARKS
LA GUARDIA NY  PTCLDY    76  58  53 NW3       29.86S
RALEIGH NC     CLEAR     72  61  68 CALM      29.93S
ATLANTA GA     CLEAR     78  59  51 N8        29.93F
NEW ORLEANS LA CLEAR     79  65  62 CALM      29.89F
OKLAHOMA CITY  PTCLDY    71  68  90 S6        29.98F
ALBUQUERQUE NM LGT RAIN  66  62  87 SE7       30.22F
SALT LAKE CITY PTCLDY    75  41  29 S7        29.98F
LOS ANGELES CA MOCLDY    69  65  86 S5        29.92S
BOISE ID       MOCLDY    80  36  20 E6        29.88S
SEATTLE WA     PTCLDY    75  48  38 NE9       29.92S
$$

*** WEATHER ACROSS MANITOBA...SASKATCHEWAN AND ONTARIO ***
                ***ONTARIO***

CITY           SKY/WX    TMP DP  RH WIND       PRES   REMARKS
GERALDTON      NOT AVBL
THUNDER BAY    CLOUDY    61  59  94 VRB2      29.65R
SIOUX LOOKOUT  MOCLDY    59  57  94 W3        29.63R
TORONTO        PTCLDY    63  55  77 SW5       29.83F
BIG TROUT LK   LGT RAIN  50  48  93 NW14G22   29.45F
PICKLE LAKE    NOT AVBL
DRYDEN         CLEAR     59  57  94 W6        29.64S
KENORA         PTCLDY    61  59  94 W6        29.68S
$$
                *** MANITOBA***

CITY           SKY/WX    TMP DP  RH WIND       PRES   REMARKS
BRANDON        CLEAR     55  54  94 N3        29.76S
DAUPHIN        CLEAR     57  55  94 W6        29.77S
ISLAND LAKE    CLOUDY    55  48  76 NW14G23   29.59S
PILOT MOUND      N/A     59  57  94 N5          N/A
THE PAS        PTCLDY    63  46  55 NW9       29.77R
THOMPSON       LGT RAIN  52  48  87 NW9       29.65S
WINNIPEG       MOCLDY    59  57  94 NW7       29.70S
LYNN LAKE      CLOUDY    54  45  71 NW9       29.75F
CHURCHILL      LGT RAIN  46  45  93 N20G26    29.53S FOG
$$
                ***SASKATCHEWAN***

CITY           SKY/WX    TMP DP  RH WIND       PRES   REMARKS
ESTEVAN        CLEAR     54  52  94 NW7       29.87R
KINDERSLEY     MOCLDY    57  54  88 N9        30.00R
LLOYDMINSTER   CLEAR     54  50  87 NW5       30.01R
PRINCE ALBERT  CLEAR     52  50  93 NW6       29.91R
REGINA         CLEAR     55  54  94 W7        29.90R
YORKTON        CLOUDY    59  55  88 NW7       29.84R
N. BATTLEFORD  CLEAR     52  50  93 W3        29.99R
LA RONGE       CLEAR     54  45  71 W7        29.88R
SASKATOON      CLEAR     52  52 100 NW8       29.96R
SWIFT CURRENT  CLEAR     59  52  77 NW9       29.99R
$$
NOTE: THESE ARE AUTOMATED STATIONS WITH LIMITED QUALITY CONTROL
      "FAIR" INDICATES FEW OR NO CLOUDS BELOW 12,000 FEET WITH NO
      SIGNIFICANT WEATHER AND/OR OBSTRUCTIONS TO VISIBILITY.
      SKY/WX - SKY CONDITION AND SIGNIFICANT WEATHER.
      TMP - AIR TEMPERATURE.    DP   - DEWPOINT TEMPERATURE.
      RH  - RELATIVE HUMIDITY.  PRES - PRESSURE.
      HX  - HEAT INDEX.         WCI  - WIND CHILL INDEX.
$



USA.gov is the U.S. government's official web portal to all federal, state and local government web resources and services.